Wind_Speed
16 16 15 13 12 11 10 9 8 7 6 5 5 4 4 4 4 4 5 5 5 6 6 6 7 7 8 8 8 8 9 9 9 10 10 10 10 10 11 11 11 11 11
18 17 16 15 14 13 12 11 10 9 8 7 7 6 6 6 6 6 6 7 7 7 8 8 8 9 9 9 10 10 10 10 10 11 11 11 12 12 12 12 13 13 13
20 19 18 17 16 15 14 13 12 11 10 9 9 8 8 8 8 8 8 8 8 9 9 10 10 11 11 11 12 12 12 12 12 13 13 13 13 13 13 14 14 15 15
22 21 19 18 17 16 15 15 14 13 12 11 11 10 9 9 9 9 10 10 10 10 11 11 12 12 13 13 14 14 14 14 14 15 15 15 15 15 15 15 16 16 16
23 22 21 20 18 17 16 16 15 14 14 13 12 11 11 11 11 11 11 12 12 12 12 13 13 14 14 14 15 15 16 16 16 16 17 17 17 17 17 17 18 18 18
24 23 22 21 20 19 18 16 16 15 15 14 14 13 13 12 12 12 13 13 13 14 14 14 15 15 16 16 16 17 17 17 17 17 17 18 18 19 19 19 19 19 20
26 25 23 22 21 20 19 18 17 16 16 15 15 14 14 13 13 13 14 14 15 15 16 16 16 17 17 17 18 18 18 19 19 19 19 20 20 20 20 20 21 21 21
27 27 25 24 23 21 20 19 18 17 16 16 16 15 15 15 15 15 15 15 16 16 17 17 18 18 18 19 19 19 19 20 20 20 21 21 21 21 21 22 22 23 23
28 27 27 25 24 23 21 20 19 18 18 17 17 17 16 16 16 16 16 16 17 17 18 19 19 19 19 20 21 21 21 21 21 21 22 22 22 23 23 23 23 24 24
28 28 27 27 25 24 23 22 21 19 19 19 19 18 18 17 17 17 17 18 18 18 19 19 20 20 21 21 22 22 23 23 23 23 23 24 24 24 24 25 25 25 25
28 27 27 27 26 25 25 24 23 21 21 21 21 20 20 19 19 19 19 20 20 20 21 21 21 22 22 23 23 24 24 24 25 25 25 25 25 25 25 25 25 26 26
29 27 27 27 27 26 25 25 24 24 23 23 22 22 22 21 21 21 22 22 22 22 22 22 22 23 23 24 25 25 25 26 26 26 26 26 26 26 26 26 27 27 27
30 28 27 27 28 27 26 26 25 25 25 24 24 24 23 23 23 24 24 24 24 24 24 23 23 24 24 25 25 25 26 26 27 27 27 27 28 28 28 28 29 29 29
30 29 29 28 29 28 27 27 26 26 26 25 25 25 25 25 25 25 25 25 25 25 24 24 24 24 25 25 25 25 26 27 27 28 28 29 29 30 30 31 31 31 31
30 29 29 29 29 28 28 27 26 27 27 27 26 26 26 26 26 26 26 26 26 26 26 26 26 26 26 25 26 26 27 27 28 28 30 30 31 32 32 32 32 33 33
30 29 29 28 29 29 29 27 27 27 27 27 27 26 26 27 27 27 27 28 28 28 27 27 27 27 27 27 27 27 27 27 28 29 30 31 32 32 33 33 34 34 35
30 30 29 28 28 28 28 28 28 28 27 26 27 27 27 27 27 28 28 29 29 29 29 29 28 29 29 29 29 29 29 29 29 30 30 31 32 32 33 34 34 35 35
30 30 29 29 29 29 29 29 29 29 28 28 28 28 28 28 28 29 30 30 30 30 30 30 30 30 30 30 30 30 31 31 31 31 31 31 31 32 32 33 34 35 35
30 30 31 30 30 29 30 30 30 30 29 28 29 28 28 29 30 31 31 31 32 32 32 32 32 32 32 32 32 32 33 33 33 33 32 32 32 33 33 33 33 34 35
30 30 30 30 30 30 30 31 31 31 31 30 30 30 30 30 32 32 32 33 33 33 33 33 34 34 34 34 34 34 35 35 34 34 34 33 33 33 34 34 34 35 35
31 31 31 31 31 31 31 31 32 33 33 33 32 32 32 32 32 33 34 34 34 34 35 35 35 35 35 35 35 35 35 35 35 35 35 35 35 35 35 36 36 36 36
31 32 32 32 32 32 32 32 33 34 35 35 35 35 35 34 33 34 35 37 37 36 36 36 36 36 36 36 36 35 35 36 36 37 37 37 37 37 37 37 37 37 38
31 32 33 32 32 33 33 33 34 35 36 37 37 37 37 37 36 36 36 36 37 37 37 37 37 37 37 37 37 37 36 36 37 37 38 38 39 39 39 39 39 39 39
30 31 32 32 33 33 34 34 35 37 37 38 38 39 40 39 39 38 38 38 38 38 38 38 38 38 37 37 38 38 38 38 38 38 39 40 40 40 41 41 41 41 42
31 32 32 33 33 33 33 35 37 38 38 39 40 40 41 41 41 40 40 39 39 38 38 38 38 38 38 38 39 39 39 40 40 40 40 40 41 41 42 43 43 44 44
31 32 32 33 34 35 35 36 37 38 39 40 40 40 40 40 40 41 41 41 40 39 39 38 38 39 39 39 40 40 40 41 41 41 41 41 41 42 43 43 44 44 44
Wind_Direction
234 233 233 233 233 233 232 234 234 234 241 249 255 268 283 293 295 295 298 300 304 305 306 309 311 310 309 307 308 308 307 306 305 302 298 295 294 294 294 293 293 292 292
233 233 235 236 235 235 236 239 241 242 246 253 260 267 274 281 285 289 291 293 296 299 301 303 304 304 303 303 304 304 303 303 302 301 299 297 295 292 291 292 292 291 291
234 235 236 238 237 237 239 241 245 248 250 255 259 264 270 276 281 285 287 289 291 295 297 298 299 299 299 299 300 299 298 297 297 296 296 296 294 292 291 290 288 289 289
234 235 236 238 237 238 241 243 246 249 252 254 258 262 268 274 278 281 284 286 288 290 293 295 295 295 294 295 296 295 294 294 293 293 292 292 292 291 290 290 288 287 286
233 234 235 236 236 237 240 243 246 249 251 253 256 260 266 271 274 278 281 283 285 287 288 290 292 292 292 293 294 294 293 293 293 293 292 291 290 289 289 289 288 287 286
231 232 233 234 235 237 239 242 246 248 251 253 255 259 263 268 272 276 280 281 284 285 286 287 288 289 290 291 292 292 292 292 292 292 292 291 290 289 288 288 287 286 285
229 231 232 233 235 236 238 242 245 248 250 252 254 258 262 266 270 274 278 281 283 284 285 286 287 288 289 290 290 290 290 290 290 290 290 289 289 288 288 287 286 286 285
229 230 231 233 234 236 239 243 245 247 250 252 254 257 261 265 269 273 277 281 283 284 285 286 287 288 288 289 289 289 289 289 289 289 289 288 288 287 287 286 286 286 285
229 230 231 232 234 237 240 244 248 247 250 253 255 258 261 265 268 272 276 280 283 285 286 286 287 288 288 288 288 288 288 288 289 289 289 288 288 287 287 287 286 286 285
229 229 230 233 235 237 240 244 247 249 250 253 255 258 262 265 268 272 275 279 281 283 285 286 287 288 288 288 287 287 287 288 289 289 288 288 287 287 287 286 285 285 284
229 230 230 232 234 237 240 243 247 250 251 254 256 258 261 265 269 272 275 277 279 281 284 285 286 287 288 288 287 287 287 287 287 288 287 287 286 286 285 285 285 284 284
228 230 232 233 235 238 241 243 247 249 252 255 256 258 262 265 269 272 275 276 278 281 282 284 285 286 288 288 288 287 286 286 286 287 286 286 286 286 285 285 285 285 285
228 230 232 234 236 239 242 244 247 249 252 255 256 259 261 265 269 272 274 276 277 279 281 283 283 285 286 287 287 286 286 286 286 286 285 285 285 285 285 285 284 284 284
228 230 234 234 237 239 241 244 248 250 252 255 258 260 262 265 269 271 274 275 276 278 280 281 282 283 286 287 287 287 287 287 286 285 284 284 284 284 284 284 283 283 283
228 232 234 235 235 238 242 246 249 251 252 255 258 259 262 265 268 271 273 274 275 276 278 280 282 283 285 287 287 287 287 287 286 285 284 284 284 284 284 283 284 284 284
229 231 233 235 236 238 241 245 249 252 253 256 257 258 261 264 268 270 272 273 274 276 277 279 281 283 284 286 287 287 288 287 287 287 287 286 286 285 285 284 284 284 284
229 231 232 234 235 238 241 245 249 251 254 256 258 260 262 265 268 270 271 273 274 275 276 279 280 281 283 284 286 287 287 287 287 287 287 287 286 286 286 285 284 284 284
230 232 234 237 238 240 243 246 249 251 253 256 258 262 263 266 269 270 271 273 274 275 277 279 281 282 282 283 284 285 286 287 287 287 287 287 287 287 287 287 286 285 285
231 233 237 239 240 243 245 247 249 252 254 257 260 263 265 267 269 271 271 273 274 276 277 278 280 281 282 283 283 285 285 286 286 286 286 287 286 287 288 288 287 287 286
232 235 237 240 243 245 247 250 251 253 256 259 261 264 267 268 269 270 271 273 274 275 277 278 279 280 281 282 283 284 284 285 285 285 285 285 286 287 287 288 288 287 287
236 238 240 242 245 247 250 251 253 255 257 261 263 265 267 268 269 270 270 272 273 275 277 278 279 280 281 282 283 283 283 284 284 284 284 284 285 287 287 287 287 287 287
240 242 244 245 247 250 251 253 255 258 260 263 264 265 267 269 270 270 270 271 273 276 277 278 279 280 281 282 282 283 283 283 284 284 284 284 285 286 287 287 287 287 287
242 245 245 248 250 252 253 255 257 260 262 264 264 265 268 271 272 272 271 273 274 275 276 277 278 279 280 281 281 282 281 281 283 284 285 285 285 286 286 287 286 287 287
245 247 249 251 252 254 255 257 260 261 263 265 266 268 269 271 272 274 272 274 275 276 276 275 277 278 279 280 281 281 281 281 282 281 283 285 286 287 287 287 286 286 286
248 250 252 254 255 257 259 260 262 263 264 266 268 269 270 271 271 272 274 275 275 276 277 277 276 277 278 279 280 281 281 282 282 283 284 285 286 286 286 286 286 286 286
252 253 255 256 258 259 262 264 264 265 266 268 269 269 270 271 272 273 274 275 275 276 277 278 277 277 278 279 280 280 281 282 283 283 283 284 285 285 286 286 287 287 286
Height
5856 5857 5859 5861 5862 5864 5865 5866 5867 5868 5869 5870 5870 5871 5872 5872 5873 5873 5874 5874 5875 5875 5875 5875 5876 5876 5876 5876 5876 5875 5875 5875 5875 5875 5875 5874 5874 5874 5874 5874 5873 5873 5873
5853 5855 5857 5858 5860 5862 5863 5864 5865 5866 5867 5868 5869 5870 5870 5871 5872 5872 5873 5873 5874 5874 5874 5874 5874 5874 5874 5874 5874 5874 5874 5874 5873 5873 5873 5873 5872 5872 5872 5872 5871 5871 5871
5850 5852 5854 5856 5858 5859 5861 5862 5863 5865 5866 5867 5867 5868 5869 5869 5870 5871 5871 5872 5872 5872 5872 5873 5873 5873 5873 5873 5872 5872 5872 5872 5872 5871 5871 5871 5870 5870 5870 5869 5869 5869 5868
5847 5849 5851 5853 5855 5857 5858 5860 5861 5862 5864 5864 5865 5866 5867 5868 5868 5869 5869 5870 5870 5870 5871 5871 5871 5871 5870 5870 5870 5870 5870 5870 5869 5869 5869 5868 5868 5868 5867 5867 5866 5866 5866
5843 5846 5848 5850 5852 5854 5856 5857 5859 5860 5861 5862 5863 5864 5865 5866 5866 5867 5867 5868 5868 5868 5868 5868 5868 5868 5868 5868 5868 5867 5867 5867 5867 5866 5866 5866 5865 5865 5864 5864 5863 5863 5863
5839 5842 5844 5847 5849 5851 5853 5854 5856 5857 5859 5860 5861 5862 5862 5863 5864 5864 5865 5865 5865 5866 5866 5866 5866 5865 5865 5865 5865 5864 5864 5864 5863 5863 5863 5862 5862 5861 5861 5860 5860 5859 5859
5835 5838 5841 5843 5845 5848 5850 5851 5853 5855 5856 5857 5858 5859 5860 5860 5861 5862 5862 5862 5863 5863 5863 5863 5863 5863 5862 5862 5862 5861 5861 5860 5860 5859 5859 5859 5858 5858 5857 5857 5856 5855 5855
5831 5834 5837 5839 5842 5844 5846 5848 5850 5851 5853 5854 5855 5856 5857 5857 5858 5858 5859 5859 5859 5860 5860 5860 5859 5859 5859 5859 5858 5858 5857 5857 5856 5856 5855 5854 5854 5853 5853 5852 5852 5851 5851
5826 5830 5833 5835 5838 5840 5843 5844 5846 5848 5849 5851 5852 5853 5853 5854 5855 5855 5856 5856 5856 5856 5856 5856 5856 5856 5855 5855 5854 5853 5853 5852 5852 5851 5851 5850 5850 5849 5848 5848 5847 5847 5846
5822 5825 5828 5831 5834 5837 5839 5841 5842 5844 5846 5847 5848 5849 5850 5851 5851 5852 5852 5852 5852 5852 5852 5852 5852 5851 5851 5850 5849 5849 5848 5848 5847 5847 5846 5845 5845 5844 5844 5843 5842 5842 5841
5817 5821 5824 5827 5830 5832 5835 5837 5838 5840 5841 5843 5844 5845 5846 5847 5847 5848 5848 5848 5848 5848 5848 5848 5847 5847 5846 5845 5845 5844 5843 5843 5842 5842 5841 5840 5840 5839 5838 5838 5837 5836 5836
5813 5816 5819 5822 5825 5828 5830 5832 5834 5836 5837 5838 5840 5841 5842 5843 5843 5844 5844 5844 5844 5844 5844 5843 5843 5842 5841 5840 5839 5838 5838 5837 5837 5836 5836 5835 5834 5834 5833 5832 5831 5831 5830
5808 5811 5815 5818 5820 5823 5825 5827 5829 5831 5832 5834 5835 5836 5837 5838 5839 5839 5839 5839 5839 5839 5839 5838 5838 5837 5836 5835 5834 5833 5832 5831 5831 5831 5830 5829 5828 5828 5827 5826 5826 5825 5824
5803 5806 5810 5813 5816 5818 5820 5822 5824 5826 5827 5828 5830 5831 5832 5833 5834 5834 5834 5834 5834 5834 5834 5833 5833 5832 5831 5830 5829 5827 5827 5826 5825 5824 5824 5823 5822 5821 5821 5820 5819 5818 5817
5798 5802 5805 5808 5810 5813 5815 5817 5819 5820 5822 5823 5824 5825 5826 5827 5828 5829 5829 5829 5829 5828 5828 5828 5827 5826 5825 5824 5823 5822 5821 5820 5819 5818 5817 5816 5816 5815 5814 5813 5812 5811 5810
5793 5796 5799 5802 5805 5808 5810 5812 5814 5815 5816 5818 5819 5820 5821 5822 5822 5823 5823 5823 5823 5822 5822 5822 5821 5820 5820 5819 5817 5816 5815 5814 5813 5812 5811 5810 5809 5808 5807 5806 5805 5804 5802
5788 5791 5794 5797 5799 5802 5804 5806 5808 5810 5811 5812 5813 5814 5815 5816 5816 5816 5817 5817 5817 5816 5816 5816 5815 5814 5813 5812 5811 5810 5809 5808 5807 5806 5804 5803 5802 5801 5799 5798 5797 5796 5794
5783 5786 5789 5791 5794 5796 5798 5800 5802 5804 5805 5806 5807 5808 5809 5810 5810 5810 5810 5810 5810 5810 5809 5809 5808 5808 5807 5806 5805 5804 5802 5801 5800 5799 5797 5796 5795 5794 5792 5791 5789 5788 5786
5778 5781 5784 5786 5788 5790 5792 5794 5796 5797 5798 5800 5801 5802 5803 5803 5804 5804 5804 5804 5803 5803 5802 5802 5801 5801 5800 5799 5798 5797 5795 5794 5793 5792 5790 5789 5788 5786 5785 5783 5782 5780 5778
5773 5776 5778 5781 5783 5785 5787 5789 5790 5792 5793 5794 5795 5795 5795 5796 5797 5797 5797 5797 5796 5796 5795 5795 5794 5793 5792 5791 5790 5789 5788 5786 5785 5784 5783 5781 5780 5779 5777 5775 5774 5772 5770
5768 5771 5773 5775 5777 5779 5781 5783 5784 5785 5787 5788 5788 5788 5789 5789 5789 5789 5789 5789 5789 5788 5788 5787 5786 5785 5784 5783 5782 5781 5780 5778 5777 5776 5775 5773 5772 5771 5769 5767 5766 5764 5762
5763 5766 5768 5770 5771 5773 5775 5776 5778 5779 5780 5781 5782 5782 5781 5781 5781 5781 5781 5781 5780 5780 5779 5779 5778 5777 5776 5775 5774 5773 5772 5771 5769 5768 5766 5765 5764 5762 5760 5759 5757 5755 5753
5758 5760 5762 5764 5766 5767 5768 5770 5771 5771 5772 5773 5774 5774 5774 5774 5773 5773 5773 5773 5772 5772 5771 5770 5769 5768 5767 5766 5765 5764 5763 5762 5761 5759 5757 5756 5754 5753 5751 5749 5748 5746 5744
5753 5755 5756 5758 5759 5761 5762 5763 5763 5764 5765 5765 5766 5766 5766 5766 5765 5765 5765 5764 5764 5763 5762 5761 5760 5760 5759 5758 5756 5755 5754 5753 5752 5751 5749 5747 5745 5743 5741 5739 5738 5736 5734
5747 5749 5750 5752 5753 5754 5755 5756 5756 5757 5757 5757 5758 5758 5758 5757 5757 5757 5756 5755 5755 5754 5753 5752 5751 5751 5749 5749 5747 5746 5744 5743 5742 5741 5740 5738 5735 5733 5731 5729 5727 5725 5723
5742 5743 5744 5745 5746 5747 5748 5749 5749 5749 5749 5749 5749 5749 5749 5748 5748 5748 5747 5747 5746 5745 5744 5743 5742 5741 5740 5739 5738 5736 5735 5734 5732 5731 5730 5728 5726 5723 5721 5719 5716 5714 5712